Miscellaneous Local Product
Issued by NWS Hastings, NE

Home | Current Version | Previous Version | Text Only | Print | Product List | Glossary On
Versions: 1 2 3 4 5 6 7 8 9 10 11 12 13 14 15 16 17 18 19 20 21 22 23 24 25 26 27 28 29 30 31 32 33 34 35 36 37 38 39 40 41 42 43 44 45 46 47 48 49 50
000
AXUS43 KGID 230402
MISGRI

GID CWA HOURLY WEATHER ROUNDUP
NATIONAL WEATHER SERVICE HASTINGS NE
1100 PM CDT TUE JUL 22 2014

NOTE: "FAIR" INDICATES FEW OR NO CLOUDS BELOW 12,000 FEET WITH NO
SIGNIFICANT WEATHER AND/OR OBSTRUCTIONS TO VISIBILITY.

...SOUTH CENTRAL NEBRASKA...

CITY           SKY/WX    TMP DP  RH WIND       PRES   REMARKS
GRAND ISLAND   CLEAR     72  68  87 NE7       30.19R
HASTINGS       CLEAR     74  67  78 NE9       30.19R
KEARNEY        CLEAR     73  66  78 NE9       30.21R
ORD            CLEAR     68  65  90 NE3       30.22R
YORK           CLEAR     72  70  94 N7        30.18R
AURORA         CLEAR     73  70  92 NE6       30.18S
LEXINGTON      CLEAR     74  68  81 NE8       30.22R
HOLDREGE       CLEAR     73  67  80 NE9       30.21R
HEBRON         CLEAR     78  69  73 NE7       30.15R

...NEBRASKA PANHANDLE...

CITY           SKY/WX    TMP DP  RH WIND       PRES   REMARKS
CHADRON        TSTM      71  65  81 E24G44    30.25R
ALLIANCE       CLEAR     78  55  44 SE16      30.24R
SCOTTSBLUFF    MOCLDY    77  60  55 E13       30.23R
SIDNEY         MOCLDY    76  57  51 SE10      30.28R

...WESTERN AND NORTH CENTRAL NEBRASKA...

CITY           SKY/WX    TMP DP  RH WIND       PRES   REMARKS
VALENTINE      PTCLDY    73  63  70 E7        30.28R
AINSWORTH      CLEAR     67  64  89 E3        30.28R FOG
ONEILL         CLEAR     69  62  77 NE6       30.24S
BROKEN BOW     CLEAR     71  64  78 E7        30.24R
IMPERIAL       PTCLDY    77  60  55 E9        30.24R
NORTH PLATTE   PTCLDY    73  65  75 E9        30.22R
MCCOOK         CLEAR     77  64  64 E12       30.20R

...EASTERN NEBRASKA...

CITY           SKY/WX    TMP DP  RH WIND       PRES   REMARKS
NORFOLK        CLEAR     73  64  73 NE6       30.19S
SO SIOUX CITY  CLEAR     74  62  66 NE6       30.17R
TEKAMAH        CLEAR     70  65  84 N5        30.16R
COLUMBUS       CLEAR     70  64  83 NE6       30.19S
ALBION         CLEAR     71  65  83 N3        30.21R
OMAHA EPPLEY   PTCLDY    74  67  78 N7        30.14R
OFFUTT AFB     CLEAR     76  70  82 N6        30.13R
MILLARD        CLEAR     78  68  71 N3        30.14R
LINCOLN        CLEAR     74  68  81 N8        30.15R
NEBRASKA CITY  CLEAR     74  69  82 NE12      30.13R
BEATRICE       CLEAR     73  68  84 NE8       30.13R
FALLS CITY     CLEAR     79  72  79 N7        30.10R

...NORTHERN KANSAS...

CITY           SKY/WX    TMP DP  RH WIND       PRES   REMARKS
GOODLAND       CLEAR     77  68  73 E10       30.24R
HILL CITY      CLEAR     82  72  71 E10       30.15R
NORTON         CLEAR     79  64  61 NE13      30.17R
PHILLIPSBURG   CLEAR     82  66  57 NE14      30.15R
SMITH CENTER   CLEAR     79  66  65 NE13      30.15R
HAYS           CLEAR     81  63  54 S7        30.12R
RUSSELL        CLEAR     82  69  64 S7        30.10R
CONCORDIA      CLEAR     82  71  69 NE8       30.11R
SALINA         CLEAR     91  69  48 NE5       30.07R HX  96
TOPEKA         CLEAR     85  78  80 N3        30.05R HX  96



USA.gov is the U.S. government's official web portal to all federal, state and local government web resources and services.